[[{"header":{"parameterUnit":"m.s-1","parameterCategory":1,"la1":30.2991,"la2":30.254,"lo1":-89.0895,"lo2":-89.0444,"dy":0.0017,"dx":0.0017,"nx":28,"ny":28,"refTime":"2023-08-25T21:00:00:Z","depth":0,"parameterNumber":2,"parameterNumberName":"U-component_of_WINDS"},"data":[0,0,0,0,0,0,0,0,0,0,0,0,0,0,0,0,0,0,0,0,0,0,0,0,0,0,0,0,0,0,0,0,0,0,0,0,0,0,0,0,0,0,0,0,0,0,0,0,0,0,0,0,0,0,0,0,0,0,1.2411,1.2411,0,1.2409,1.2409,1.2409,1.237,1.2369,1.2368,1.2367,1.2364,1.2365,1.2366,0,0,0,0,0,0,0,0,0,0,0,0,0,1.2385,1.2385,1.2411,1.2411,1.2411,1.2409,1.2409,1.2409,1.2371,1.2369,1.2368,1.2367,1.2364,1.2365,1.2366,0,0,0,0,0,0,0,0,0,0,0,0,0,1.2391,1.2386,1.2411,1.2392,1.239,1.2409,1.2409,1.2409,1.2371,1.2369,1.2368,1.2366,1.2363,1.2365,1.2366,1.2402,0,0,1.237,1.237,0,0,0,0,0,0,0,0,1.239,1.2392,1.2395,1.2393,1.2392,1.2388,1.2398,1.2406,1.2371,1.2378,1.2367,1.2366,1.2373,1.2374,1.2376,1.2402,1.2402,1.237,1.237,1.2371,1.2371,0,0,0,0,0,0,0,1.239,1.2392,1.241,1.2395,1.2393,1.2384,1.2383,1.2399,1.2384,1.2377,1.2375,1.2375,1.2372,1.2375,1.2376,1.2402,1.237,1.2371,1.2371,1.2372,1.246,1.2461,0,0,0,0,0,0,1.2392,1.2391,1.241,1.241,1.2387,1.2386,1.2385,1.2391,1.2384,1.2381,1.2376,1.2373,1.2374,1.2374,1.2376,1.2419,1.2371,1.2372,1.2373,1.2458,1.246,1.2462,0,0,0,0,0,0,1.2392,1.2394,1.2411,1.24,1.2402,1.2388,1.2395,1.2392,1.2395,1.2383,1.238,1.2382,1.2373,1.2374,1.2396,1.2418,1.2373,1.2374,1.2456,1.2459,1.2461,1.2506,0,0,0,0,0,0,1.2391,1.2394,1.2408,1.2401,1.2402,1.2431,1.2396,1.2393,1.2397,1.2393,1.2387,1.2385,1.2372,1.2395,1.2398,1.2419,1.2375,1.2454,1.2457,1.246,1.2502,1.2509,1.2515,0,0,0,0,0,1.239,1.242,1.2409,1.2411,1.2419,1.2433,1.2433,1.2417,1.2399,1.2412,1.2405,1.2385,1.2416,1.2397,1.24,1.2423,1.2453,1.2456,1.246,1.2499,1.2508,1.2515,0,0,0,0,0,0,1.2429,1.2419,1.2406,1.2434,1.2435,1.2426,1.2443,1.2427,1.2433,1.2429,1.2408,1.2408,1.2434,1.243,1.241,1.2459,1.2431,1.2435,1.246,1.2468,1.2474,1.2475,1.2376,0,0,0,0,0,1.2441,1.2453,1.2443,1.2469,1.247,1.2457,1.2462,1.245,1.245,1.245,1.2444,1.2444,1.2454,1.2461,1.2469,1.2502,1.2501,1.2519,1.2525,1.2531,1.2535,1.2553,1.2562,1.2474,1.2474,1.2474,0,0,1.2465,1.2461,1.247,1.2477,1.2476,1.2489,1.2457,1.2472,1.2482,1.2452,1.2473,1.2469,1.2468,1.2497,1.2509,1.2495,1.2559,1.2535,1.254,1.2541,1.2558,1.2566,1.2574,1.2476,1.2476,1.2475,0,0,1.2517,1.2515,1.2537,1.2537,1.2536,1.2528,1.2533,1.2527,1.2524,1.2545,1.2523,1.2535,1.2552,1.2553,1.2555,1.261,1.2592,1.2613,1.2648,1.2666,1.2673,1.2679,1.27,1.2707,1.2617,1.2617,1.2617,0,1.2548,1.2567,1.255,1.2568,1.2572,1.2546,1.2568,1.2569,1.2571,1.2575,1.2559,1.2581,1.2579,1.2608,1.2621,1.2624,1.263,1.2613,1.2673,1.2679,1.2685,1.2704,1.2712,1.262,1.2619,1.2619,1.2619,0,1.2605,1.2619,1.2637,1.2641,1.2647,1.2667,1.2654,1.2662,1.265,1.2643,1.2666,1.2662,1.267,1.2676,1.2664,1.2704,1.2695,1.2677,1.2649,1.2696,1.2714,1.2721,1.2623,1.2623,1.2622,1.2621,0,0,1.268,1.2676,1.2682,1.2685,1.2683,1.2694,1.2713,1.2721,1.2729,1.2732,1.2748,1.2764,1.2748,1.2751,1.2739,1.2755,1.28,1.2735,1.2734,1.2748,1.2846,1.286,1.2869,1.2789,1.279,1.2791,1.2846,0,1.2731,1.2764,1.275,1.2784,1.2798,1.2774,1.2791,1.2793,1.2787,1.2798,1.2792,1.2804,1.2781,1.2783,1.2798,1.2792,1.282,1.2787,1.2804,1.2805,1.2806,1.2878,1.2893,1.2945,1.2853,1.2854,1.2855,0,1.2794,1.2801,1.2837,1.2835,1.284,1.2855,1.2863,1.2873,1.2875,1.287,1.2874,1.2859,1.2879,1.2851,1.2878,1.2857,1.2863,1.2861,1.2863,1.2864,1.2833,1.2882,1.2961,1.297,1.2866,1.2865,1.2864,0,1.2847,1.2864,1.2889,1.2891,1.2889,1.29,1.29,1.29,1.2907,1.2913,1.2917,1.2926,1.2931,1.2938,1.2926,1.2907,1.2956,1.2926,1.2953,1.2953,1.2964,1.2964,1.3046,1.2967,1.2967,1.2967,1.2967,0,1.2905,1.2928,1.2912,1.2927,1.2953,1.2938,1.2964,1.2961,1.2961,1.2976,1.2956,1.297,1.2953,1.2965,1.2956,1.2981,1.2983,1.298,1.2977,1.2982,1.2983,1.2986,1.2982,1.2969,1.2969,1.2968,1.2968,0,1.2968,1.2958,1.2983,1.298,1.2979,1.2999,1.2996,1.301,1.3003,1.3022,1.3026,1.3016,1.303,1.3019,1.3032,1.3026,1.3059,1.3051,1.3059,1.3057,1.3084,1.3082,1.3172,1.3184,1.3097,1.3098,1.3099,0,1.3006,1.3023,1.3022,1.3031,1.3032,1.3046,1.3053,1.3039,1.3047,1.3051,1.3065,1.3077,1.3087,1.311,1.3105,1.3115,1.3108,1.3138,1.3109,1.3114,1.3109,1.3109,1.3111,1.3144,1.3146,1.3146,1.3147,0,1.3075,1.307,1.3081,1.3091,1.31,1.3107,1.3112,1.312,1.3106,1.3117,1.3131,1.3139,1.3153,1.3166,1.3175,1.3175,1.3159,1.3157,1.3163,1.3169,1.3173,1.3172,1.3076,1.3154,1.3154,1.3153,1.3153,1.3152,1.3127,1.3142,1.3145,1.3158,1.3161,1.3167,1.318,1.3177,1.3189,1.32,1.3191,1.3209,1.3211,1.3222,1.3224,1.3238,1.3225,1.3235,1.3237,1.324,1.3244,1.3171,1.3239,1.3239,1.3239,1.3239,1.3238,0,1.3196,1.3197,1.3209,1.3218,1.3229,1.3214,1.322,1.323,1.3246,1.325,1.326,1.3278,1.3291,1.3287,1.3299,1.3311,1.3304,1.3314,1.3314,1.3314,1.3254,1.3248,1.332,1.332,1.332,1.332,1.332,1.332,1.3233,1.3259,1.3254,1.3282,1.3282,1.33,1.3305,1.331,1.3314,1.3335,1.3346,1.3343,1.3344,1.3356,1.3368,1.3367,1.3372,1.3386,1.3382,1.3326,1.3318,1.331,1.3304,1.3387,1.3387,1.344,1.3441,1.3441]},{"header":{"parameterUnit":"m.s-1","parameterCategory":1,"la1":30.2991,"la2":30.254,"lo1":-89.0895,"lo2":-89.0444,"dy":0.0017,"dx":0.0017,"nx":28,"ny":28,"refTime":"2023-08-25T21:00:00:Z","depth":0,"parameterNumber":3,"parameterNumberName":"V-component_of_WINDS"},"data":[0,0,0,0,0,0,0,0,0,0,0,0,0,0,0,0,0,0,0,0,0,0,0,0,0,0,0,0,0,0,0,0,0,0,0,0,0,0,0,0,0,0,0,0,0,0,0,0,0,0,0,0,0,0,0,0,0,0,-2.2598,-2.2599,0,-2.2623,-2.2624,-2.2624,-2.2613,-2.2613,-2.2612,-2.2612,-2.2634,-2.2635,-2.2636,0,0,0,0,0,0,0,0,0,0,0,0,0,-2.2539,-2.254,-2.2598,-2.2599,-2.2599,-2.2623,-2.2624,-2.2624,-2.2614,-2.2613,-2.2612,-2.2611,-2.2633,-2.2635,-2.2636,0,0,0,0,0,0,0,0,0,0,0,0,0,-2.2564,-2.254,-2.2598,-2.2597,-2.2597,-2.2623,-2.2624,-2.2624,-2.2614,-2.2613,-2.2612,-2.2611,-2.2633,-2.2634,-2.2636,-2.2664,0,0,-2.2641,-2.2642,0,0,0,0,0,0,0,0,-2.2563,-2.2566,-2.2597,-2.2597,-2.2597,-2.2614,-2.2611,-2.2637,-2.2614,-2.2607,-2.2612,-2.2611,-2.2628,-2.263,-2.2636,-2.2665,-2.2666,-2.2642,-2.2643,-2.2643,-2.2644,0,0,0,0,0,0,0,-2.2561,-2.2565,-2.2608,-2.2597,-2.2597,-2.2594,-2.2597,-2.2616,-2.2622,-2.2608,-2.2607,-2.261,-2.2628,-2.2635,-2.2637,-2.2667,-2.2641,-2.2643,-2.2644,-2.2645,-2.2721,-2.2722,0,0,0,0,0,0,-2.256,-2.2564,-2.2607,-2.2609,-2.2577,-2.2596,-2.2599,-2.261,-2.2622,-2.2623,-2.2611,-2.261,-2.2632,-2.2635,-2.2637,-2.2672,-2.2643,-2.2645,-2.2646,-2.272,-2.2721,-2.2722,0,0,0,0,0,0,-2.2558,-2.2564,-2.2606,-2.2586,-2.2591,-2.2598,-2.261,-2.2611,-2.2618,-2.2624,-2.2625,-2.2617,-2.2632,-2.2635,-2.2658,-2.2672,-2.2646,-2.2647,-2.2718,-2.272,-2.2721,-2.274,0,0,0,0,0,0,-2.2557,-2.2563,-2.2574,-2.2587,-2.2592,-2.2627,-2.2611,-2.2612,-2.2621,-2.262,-2.263,-2.2631,-2.2631,-2.2656,-2.266,-2.2674,-2.2649,-2.2717,-2.2719,-2.2721,-2.2738,-2.2742,-2.2745,0,0,0,0,0,-2.2555,-2.2578,-2.2575,-2.258,-2.2607,-2.2628,-2.2631,-2.2632,-2.2622,-2.2633,-2.2638,-2.2631,-2.267,-2.2658,-2.2663,-2.2678,-2.2716,-2.2719,-2.2721,-2.2736,-2.2741,-2.2745,0,0,0,0,0,0,-2.2565,-2.2579,-2.2576,-2.2604,-2.2615,-2.2626,-2.264,-2.2637,-2.265,-2.2647,-2.2647,-2.2649,-2.2673,-2.2678,-2.2664,-2.2706,-2.2692,-2.2695,-2.2702,-2.2706,-2.271,-2.2708,-2.265,0,0,0,0,0,-2.2571,-2.2588,-2.2599,-2.2623,-2.2629,-2.2634,-2.2643,-2.2643,-2.2653,-2.2657,-2.2664,-2.2673,-2.2688,-2.2697,-2.2711,-2.2739,-2.2741,-2.2751,-2.2755,-2.2758,-2.276,-2.2776,-2.278,-2.2729,-2.2729,-2.2729,0,0,-2.2583,-2.2593,-2.2603,-2.2625,-2.2634,-2.2651,-2.2637,-2.2656,-2.2668,-2.266,-2.2682,-2.2687,-2.2698,-2.2724,-2.2735,-2.2728,-2.2775,-2.2761,-2.2763,-2.2764,-2.2778,-2.2783,-2.2787,-2.2731,-2.2731,-2.273,0,0,-2.2613,-2.2622,-2.2643,-2.2653,-2.2667,-2.267,-2.2675,-2.2687,-2.2691,-2.2714,-2.2708,-2.2722,-2.2747,-2.2756,-2.2763,-2.2798,-2.2792,-2.2802,-2.282,-2.2835,-2.2839,-2.2843,-2.2855,-2.286,-2.2805,-2.2805,-2.2805,0,-2.2625,-2.2652,-2.2654,-2.2674,-2.2683,-2.2679,-2.27,-2.2708,-2.2725,-2.2731,-2.2724,-2.2756,-2.2763,-2.2791,-2.2799,-2.2806,-2.2811,-2.2801,-2.2839,-2.2842,-2.2846,-2.2858,-2.2862,-2.2806,-2.2806,-2.2806,-2.2806,0,-2.2667,-2.2685,-2.27,-2.2719,-2.273,-2.275,-2.2755,-2.2766,-2.2765,-2.2769,-2.2793,-2.2801,-2.2817,-2.2824,-2.2822,-2.2851,-2.2847,-2.2839,-2.2825,-2.2852,-2.2863,-2.2867,-2.2808,-2.2808,-2.2807,-2.2807,0,0,-2.2703,-2.2724,-2.2729,-2.2738,-2.2754,-2.2767,-2.2787,-2.2804,-2.2814,-2.2826,-2.2842,-2.2864,-2.2858,-2.2866,-2.2866,-2.2879,-2.2906,-2.287,-2.287,-2.2876,-2.2939,-2.2945,-2.295,-2.2903,-2.2904,-2.2905,-2.2938,0,-2.2734,-2.277,-2.2774,-2.2806,-2.2823,-2.2819,-2.2837,-2.2848,-2.2852,-2.2867,-2.2871,-2.2887,-2.2877,-2.2883,-2.2896,-2.29,-2.2919,-2.2898,-2.2917,-2.2918,-2.2914,-2.2956,-2.2961,-2.2992,-2.2942,-2.2943,-2.2944,0,-2.2775,-2.279,-2.2825,-2.2839,-2.2847,-2.2862,-2.2878,-2.2893,-2.2905,-2.2907,-2.2918,-2.2916,-2.2936,-2.2921,-2.2948,-2.2934,-2.2942,-2.2946,-2.2947,-2.2948,-2.2932,-2.2958,-2.3002,-2.3007,-2.2951,-2.295,-2.295,0,-2.2798,-2.2827,-2.2852,-2.2859,-2.2877,-2.2888,-2.2895,-2.2907,-2.2917,-2.2931,-2.2938,-2.2953,-2.2961,-2.2973,-2.2975,-2.2965,-2.3002,-2.2988,-2.3004,-2.3004,-2.3011,-2.3011,-2.3058,-2.3017,-2.3017,-2.3017,-2.3017,0,-2.2832,-2.2853,-2.2863,-2.2878,-2.2901,-2.2905,-2.2927,-2.2934,-2.2945,-2.296,-2.2958,-2.2972,-2.2975,-2.2989,-2.2991,-2.3013,-2.3017,-2.3019,-2.3019,-2.3019,-2.3019,-2.3024,-2.3021,-2.3019,-2.3018,-2.3018,-2.3018,0,-2.2861,-2.2868,-2.2895,-2.291,-2.2914,-2.2931,-2.2943,-2.2957,-2.2963,-2.2983,-2.2987,-2.2995,-2.3012,-2.3016,-2.3036,-2.3037,-2.3063,-2.3061,-2.306,-2.3059,-2.3075,-2.3074,-2.3126,-2.3134,-2.3089,-2.3089,-2.309,0,-2.2882,-2.2899,-2.2916,-2.2928,-2.2936,-2.2954,-2.2965,-2.2969,-2.2981,-2.2997,-2.3009,-2.3027,-2.3041,-2.3069,-2.3075,-2.3091,-2.3089,-2.3107,-2.3091,-2.3091,-2.3089,-2.3088,-2.3089,-2.3109,-2.311,-2.311,-2.311,0,-2.2919,-2.2922,-2.2939,-2.2958,-2.2972,-2.2986,-2.3,-2.3009,-2.3015,-2.3028,-2.3047,-2.3058,-2.308,-2.3097,-2.3113,-2.3119,-2.3116,-2.3115,-2.312,-2.312,-2.3118,-2.3119,-2.3067,-2.3114,-2.3114,-2.3113,-2.3113,-2.3113,-2.2944,-2.2959,-2.2975,-2.2994,-2.3005,-2.3019,-2.3033,-2.3041,-2.3057,-2.3076,-2.3077,-2.3098,-2.311,-2.3131,-2.3139,-2.3154,-2.3149,-2.3155,-2.3157,-2.3158,-2.316,-2.3116,-2.3157,-2.3157,-2.3157,-2.3157,-2.3157,0,-2.2981,-2.2991,-2.3009,-2.303,-2.3045,-2.3042,-2.3058,-2.307,-2.3089,-2.3101,-2.3116,-2.3138,-2.3155,-2.3163,-2.318,-2.3191,-2.319,-2.3195,-2.3194,-2.3196,-2.3164,-2.3158,-2.3196,-2.3196,-2.3196,-2.3196,-2.3196,-2.3196,-2.3002,-2.3027,-2.3033,-2.3063,-2.3073,-2.3095,-2.3104,-2.3116,-2.3126,-2.3151,-2.3166,-2.3172,-2.3183,-2.3201,-2.3216,-2.3218,-2.3224,-2.3231,-2.3232,-2.3202,-2.3198,-2.3194,-2.3189,-2.3232,-2.3232,-2.3262,-2.3262,-2.3262]}]]